Regional Weather Roundup
Issued by NWS

Home | Current Version | Previous Version | Graphics & Text | Print | Product List | Glossary On
Versions: 1 2 3 4 5 6 7 8 9 10 11 12 13 14 15 16 17 18 19 20 21 22 23 24 25 26 27 28 29 30 31 32 33 34 35 36 37 38 39 40 41 42 43 44 45 46 47 48 49 50
000
ASUS45 KCYS 300810
RWRWY

WYOMING REGIONAL WEATHER ROUNDUP
NATIONAL WEATHER SERVICE CHEYENNE WY
200 AM MDT TUE AUG 30 2016

NOTE:  "FAIR" INDICATES FEW OR NO CLOUDS BELOW 12,000 FEET
WITH NO SIGNIFICANT WEATHER AND/OR OBSTRUCTIONS TO VISIBILITY.

WYZ001-300900-
YELLOWSTONE NATIONAL PARK

CITY           SKY/WX    TMP DP  RH WIND       PRES   REMARKS
LK YELLOWSTONE   N/A     43  32  65 NW3       30.46S
W YELLOWSTONE  NOT AVBL

$$
WYZ002>013-054>058-071-098>099-300900-
NORTHERN WYOMING

CITY           SKY/WX    TMP DP  RH WIND       PRES   REMARKS
JACKSON        FAIR      48  34  57 N8        30.36S
CODY           FAIR      68  39  34 S9        30.24S
GREYBULL       FAIR      71  37  28 SE3       30.19R
WORLAND        FAIR      69  41  36 S10       30.21R
SHERIDAN       FAIR      59  45  59 CALM      30.18S
BUFFALO        FAIR      65  42  43 S9        30.28F
GILLETTE       FAIR      66  55  67 S15       30.25S
HULETT         FAIR      61  50  67 CALM      30.28S
NEWCASTLE      FAIR      61  54  77 S9        30.30S

$$
WYZ014>020-022>026-101>103-300900-
CENTRAL WYOMING

CITY           SKY/WX    TMP DP  RH WIND       PRES   REMARKS
BIG PINEY      FAIR      54  28  36 E7        30.43R
PINEDALE       FAIR      46  32  57 W3        30.45R
DUBOIS         FAIR      54  28  37 W8        30.43R
LANDER         FAIR      70  33  25 VRB7      30.31S
RIVERTON       FAIR      65  34  31 S7        30.32R
CASPER         FAIR      52  45  77 NW10      30.32S
DOUGLAS        FAIR      58  49  72 SE6       30.32S

$$
WYZ021-027>030-104>119-300900-
SOUTHERN WYOMING

CITY           SKY/WX    TMP DP  RH WIND       PRES   REMARKS
EVANSTON       FAIR      56  24  29 CALM      30.37S
FORT BRIDGER   FAIR      58  22  25 S9        30.39F
ROCK SPRINGS   FAIR      60  31  33 SE9       30.38S
DIXON          FAIR      51  37  57 E7        30.41S
RAWLINS        FAIR      53  36  52 NE9       30.41S
SARATOGA       FAIR      50  37  62 CALM      30.44S
LARAMIE        FAIR      47  37  68 CALM      30.45S
CHEYENNE       FAIR      55  41  59 W8        30.38S
TORRINGTON     FAIR      60  56  86 E3        30.27S
PINE BLUFFS    FAIR      54  46  76 W3        30.34R

$$



USA.gov is the U.S. government's official web portal to all federal, state and local government web resources and services.